QPF
0.00 0.00 0.00 0.00 0.00 0.00 0.00 0.00 0.00 0.00 0.00 0.00 0.00 0.00 0.00 0.00 0.00 0.00 0.00 0.00 0.00 0.00 0.00 0.00 0.00 0.00 0.00 0.00 0.00 0.00 0.00 0.00 0.00 0.00 0.00 0.00 0.00 0.00 0.00 0.00 0.00 0.00 0.00 0.00 0.00 0.00 0.00 0.00 0.00 0.00 0.00 0.00 0.00 0.00 0.00 0.00 0.00 0.00 0.00 0.00 0.00 0.00 0.00
0.00 0.00 0.00 0.00 0.00 0.00 0.01 0.01 0.01 0.01 0.01 0.01 0.01 0.01 0.00 0.00 0.00 0.00 0.00 0.00 0.00 0.00 0.00 0.00 0.00 0.00 0.00 0.00 0.00 0.00 0.00 0.00 0.00 0.00 0.00 0.00 0.00 0.00 0.00 0.00 0.00 0.00 0.00 0.00 0.00 0.00 0.00 0.00 0.00 0.00 0.00 0.00 0.00 0.00 0.00 0.00 0.00 0.00 0.00 0.00 0.00 0.00 0.00
0.00 0.00 0.00 0.00 0.00 0.00 0.00 0.01 0.01 0.01 0.01 0.02 0.02 0.02 0.02 0.02 0.02 0.01 0.01 0.01 0.00 0.00 0.00 0.00 0.00 0.00 0.00 0.00 0.00 0.00 0.00 0.00 0.00 0.00 0.00 0.00 0.00 0.00 0.00 0.00 0.00 0.00 0.00 0.00 0.00 0.00 0.00 0.00 0.00 0.00 0.00 0.00 0.00 0.00 0.00 0.00 0.00 0.00 0.00 0.00 0.00 0.00 0.00
0.00 0.00 0.00 0.00 0.00 0.00 0.00 0.00 0.00 0.01 0.01 0.01 0.02 0.02 0.03 0.03 0.03 0.03 0.03 0.03 0.02 0.02 0.01 0.01 0.01 0.00 0.00 0.00 0.00 0.00 0.00 0.00 0.00 0.00 0.00 0.00 0.00 0.00 0.00 0.00 0.00 0.00 0.00 0.00 0.00 0.00 0.00 0.00 0.00 0.00 0.00 0.00 0.00 0.00 0.00 0.00 0.00 0.00 0.00 0.00 0.00 0.00 0.00
0.00 0.00 0.00 0.00 0.00 0.00 0.00 0.00 0.00 0.00 0.00 0.00 0.01 0.01 0.01 0.02 0.03 0.03 0.03 0.03 0.03 0.03 0.04 0.04 0.04 0.03 0.03 0.03 0.03 0.03 0.02 0.02 0.02 0.02 0.02 0.02 0.02 0.02 0.02 0.02 0.01 0.01 0.01 0.01 0.01 0.01 0.00 0.00 0.00 0.00 0.00 0.00 0.00 0.00 0.00 0.00 0.00 0.00 0.00 0.00 0.00 0.00 0.00
0.00 0.00 0.00 0.00 0.00 0.00 0.00 0.00 0.00 0.00 0.00 0.00 0.00 0.00 0.00 0.01 0.01 0.01 0.02 0.02 0.03 0.03 0.04 0.04 0.04 0.04 0.05 0.06 0.07 0.06 0.06 0.06 0.06 0.06 0.06 0.05 0.04 0.04 0.04 0.05 0.04 0.04 0.04 0.03 0.02 0.02 0.01 0.00 0.00 0.00 0.00 0.00 0.00 0.00 0.00 0.00 0.00 0.00 0.00 0.00 0.00 0.00 0.00
0.00 0.00 0.00 0.00 0.00 0.00 0.00 0.00 0.00 0.00 0.00 0.00 0.00 0.00 0.00 0.00 0.00 0.00 0.01 0.01 0.01 0.02 0.02 0.03 0.03 0.04 0.04 0.05 0.06 0.06 0.06 0.06 0.06 0.06 0.06 0.05 0.05 0.04 0.05 0.05 0.05 0.05 0.05 0.05 0.04 0.03 0.02 0.01 0.00 0.00 0.00 0.00 0.00 0.00 0.00 0.00 0.00 0.00 0.00 0.00 0.00 0.00 0.00
0.00 0.00 0.00 0.00 0.00 0.00 0.00 0.00 0.00 0.00 0.00 0.00 0.00 0.00 0.00 0.00 0.00 0.00 0.00 0.00 0.00 0.00 0.01 0.01 0.01 0.02 0.02 0.02 0.03 0.03 0.03 0.03 0.04 0.04 0.04 0.04 0.04 0.05 0.06 0.06 0.06 0.05 0.05 0.05 0.04 0.03 0.02 0.01 0.01 0.00 0.00 0.00 0.00 0.00 0.00 0.00 0.00 0.00 0.00 0.00 0.00 0.00 0.00
0.00 0.00 0.00 0.00 0.00 0.00 0.00 0.00 0.00 0.00 0.00 0.00 0.00 0.00 0.00 0.00 0.01 0.01 0.00 0.01 0.00 0.00 0.00 0.00 0.01 0.01 0.01 0.01 0.01 0.01 0.01 0.01 0.02 0.03 0.04 0.03 0.03 0.04 0.04 0.04 0.04 0.04 0.04 0.04 0.04 0.03 0.02 0.02 0.01 0.01 0.01 0.00 0.00 0.00 0.00 0.00 0.00 0.00 0.00 0.00 0.00 0.00 0.00
0.00 0.00 0.00 0.00 0.00 0.00 0.00 0.00 0.00 0.00 0.00 0.00 0.00 0.00 0.00 0.01 0.00 0.00 0.00 0.00 0.00 0.00 0.00 0.00 0.00 0.00 0.00 0.00 0.00 0.00 0.00 0.00 0.00 0.01 0.01 0.02 0.02 0.02 0.03 0.03 0.04 0.04 0.03 0.03 0.03 0.03 0.02 0.01 0.01 0.01 0.00 0.00 0.00 0.00 0.00 0.00 0.00 0.00 0.00 0.00 0.00 0.00 0.00
0.00 0.00 0.00 0.00 0.00 0.00 0.00 0.00 0.00 0.00 0.00 0.00 0.00 0.00 0.00 0.01 0.00 0.00 0.00 0.00 0.00 0.00 0.00 0.00 0.00 0.00 0.00 0.00 0.00 0.00 0.00 0.00 0.00 0.00 0.00 0.00 0.01 0.01 0.02 0.02 0.03 0.03 0.03 0.03 0.03 0.02 0.01 0.01 0.01 0.00 0.00 0.00 0.00 0.00 0.00 0.00 0.00 0.00 0.00 0.00 0.00 0.00 0.00
0.00 0.00 0.00 0.00 0.00 0.00 0.00 0.00 0.00 0.00 0.00 0.00 0.01 0.01 0.03 0.01 0.01 0.01 0.00 0.00 0.00 0.00 0.00 0.00 0.00 0.00 0.00 0.00 0.00 0.00 0.00 0.00 0.00 0.00 0.00 0.00 0.00 0.00 0.00 0.01 0.02 0.03 0.03 0.03 0.03 0.03 0.02 0.02 0.01 0.00 0.00 0.00 0.00 0.00 0.00 0.00 0.00 0.00 0.01 0.01 0.01 0.00 0.00
0.00 0.00 0.00 0.00 0.00 0.00 0.00 0.00 0.00 0.00 0.00 0.00 0.01 0.01 0.02 0.01 0.01 0.00 0.00 0.00 0.00 0.00 0.00 0.00 0.00 0.00 0.00 0.00 0.00 0.00 0.00 0.00 0.00 0.00 0.00 0.00 0.00 0.00 0.00 0.00 0.00 0.01 0.02 0.03 0.04 0.05 0.04 0.02 0.01 0.01 0.01 0.00 0.00 0.00 0.00 0.00 0.00 0.01 0.01 0.01 0.01 0.00 0.00
0.00 0.00 0.00 0.00 0.00 0.00 0.00 0.00 0.00 0.00 0.00 0.00 0.00 0.01 0.01 0.01 0.00 0.00 0.00 0.00 0.00 0.00 0.00 0.00 0.00 0.00 0.00 0.00 0.00 0.00 0.00 0.00 0.00 0.00 0.00 0.00 0.00 0.00 0.00 0.00 0.00 0.00 0.00 0.01 0.02 0.03 0.04 0.03 0.01 0.01 0.01 0.00 0.01 0.01 0.01 0.00 0.00 0.00 0.01 0.01 0.01 0.00 0.00
0.00 0.00 0.00 0.00 0.00 0.00 0.00 0.00 0.00 0.00 0.00 0.00 0.00 0.01 0.00 0.00 0.00 0.00 0.00 0.00 0.00 0.00 0.00 0.00 0.00 0.00 0.00 0.00 0.00 0.00 0.00 0.00 0.00 0.00 0.00 0.00 0.00 0.00 0.00 0.00 0.00 0.00 0.00 0.00 0.01 0.02 0.03 0.03 0.02 0.02 0.02 0.01 0.01 0.01 0.01 0.01 0.01 0.01 0.00 0.01 0.00 0.00 0.00
0.00 0.00 0.00 0.00 0.00 0.00 0.00 0.00 0.00 0.00 0.00 0.00 0.00 0.01 0.00 0.00 0.00 0.00 0.00 0.00 0.00 0.00 0.00 0.00 0.00 0.00 0.00 0.00 0.00 0.00 0.00 0.00 0.00 0.00 0.01 0.00 0.00 0.00 0.00 0.00 0.00 0.00 0.01 0.01 0.01 0.01 0.02 0.02 0.01 0.01 0.01 0.01 0.01 0.01 0.01 0.01 0.01 0.02 0.02 0.03 0.03 0.03 0.01
0.00 0.01 0.00 0.01 0.01 0.00 0.00 0.00 0.00 0.00 0.00 0.00 0.00 0.01 0.00 0.00 0.00 0.00 0.00 0.00 0.00 0.00 0.00 0.00 0.00 0.00 0.00 0.00 0.00 0.00 0.00 0.00 0.00 0.01 0.01 0.01 0.00 0.00 0.00 0.00 0.00 0.00 0.00 0.00 0.00 0.00 0.00 0.01 0.01 0.01 0.01 0.02 0.04 0.07 0.08 0.09 0.09 0.07 0.05 0.04 0.04 0.03 0.02
0.01 0.01 0.01 0.01 0.01 0.01 0.00 0.00 0.00 0.00 0.00 0.00 0.00 0.01 0.00 0.00 0.00 0.00 0.00 0.00 0.00 0.00 0.00 0.00 0.00 0.00 0.00 0.00 0.00 0.00 0.00 0.00 0.01 0.01 0.01 0.01 0.00 0.00 0.00 0.00 0.00 0.00 0.00 0.00 0.00 0.00 0.00 0.00 0.00 0.00 0.00 0.00 0.00 0.00 0.01 0.03 0.08 0.06 0.04 0.04 0.05 0.04 0.02
0.01 0.01 0.01 0.01 0.01 0.00 0.00 0.00 0.00 0.00 0.00 0.00 0.00 0.01 0.01 0.00 0.00 0.00 0.00 0.00 0.00 0.00 0.00 0.00 0.00 0.00 0.00 0.00 0.00 0.00 0.00 0.01 0.01 0.01 0.01 0.01 0.01 0.00 0.00 0.00 0.00 0.01 0.00 0.00 0.00 0.00 0.00 0.00 0.00 0.00 0.00 0.00 0.00 0.00 0.00 0.00 0.01 0.03 0.05 0.06 0.05 0.04 0.03
0.01 0.01 0.01 0.01 0.01 0.00 0.00 0.00 0.00 0.00 0.00 0.00 0.00 0.00 0.01 0.01 0.01 0.01 0.00 0.01 0.00 0.00 0.00 0.00 0.00 0.00 0.00 0.00 0.00 0.00 0.01 0.01 0.01 0.01 0.01 0.01 0.00 0.00 0.00 0.01 0.01 0.01 0.00 0.00 0.00 0.00 0.00 0.00 0.00 0.00 0.00 0.00 0.00 0.00 0.00 0.00 0.00 0.01 0.03 0.04 0.05 0.04 0.03
0.01 0.01 0.01 0.01 0.00 0.00 0.00 0.00 0.00 0.00 0.00 0.00 0.00 0.01 0.02 0.01 0.00 0.00 0.00 0.00 0.00 0.00 0.00 0.00 0.00 0.00 0.00 0.00 0.00 0.01 0.01 0.01 0.01 0.01 0.01 0.00 0.00 0.01 0.01 0.01 0.00 0.00 0.00 0.00 0.00 0.00 0.00 0.00 0.00 0.00 0.00 0.00 0.00 0.00 0.00 0.00 0.01 0.02 0.03 0.05 0.06 0.06 0.05
0.01 0.01 0.01 0.00 0.00 0.01 0.00 0.00 0.00 0.00 0.00 0.00 0.00 0.01 0.02 0.01 0.01 0.00 0.00 0.00 0.00 0.00 0.00 0.00 0.00 0.00 0.00 0.00 0.01 0.01 0.01 0.01 0.01 0.00 0.00 0.00 0.01 0.01 0.00 0.00 0.00 0.00 0.00 0.00 0.00 0.00 0.00 0.00 0.00 0.00 0.00 0.00 0.00 0.00 0.00 0.00 0.01 0.02 0.02 0.03 0.04 0.05 0.06
0.01 0.01 0.01 0.01 0.00 0.00 0.00 0.00 0.00 0.00 0.00 0.00 0.00 0.01 0.02 0.02 0.01 0.00 0.00 0.00 0.00 0.00 0.00 0.00 0.00 0.00 0.00 0.01 0.01 0.00 0.00 0.00 0.00 0.00 0.00 0.00 0.00 0.00 0.00 0.00 0.00 0.00 0.00 0.00 0.00 0.00 0.00 0.00 0.00 0.00 0.00 0.00 0.00 0.00 0.00 0.00 0.01 0.02 0.02 0.02 0.03 0.03 0.04
0.01 0.01 0.01 0.01 0.01 0.00 0.00 0.00 0.00 0.00 0.00 0.00 0.00 0.01 0.01 0.01 0.01 0.00 0.00 0.00 0.00 0.00 0.00 0.00 0.00 0.00 0.00 0.00 0.00 0.00 0.00 0.00 0.00 0.00 0.00 0.00 0.00 0.00 0.00 0.00 0.00 0.00 0.00 0.00 0.00 0.00 0.00 0.00 0.00 0.00 0.00 0.00 0.00 0.00 0.00 0.00 0.00 0.00 0.00 0.01 0.02 0.02 0.02
0.01 0.01 0.01 0.01 0.00 0.00 0.00 0.00 0.00 0.00 0.00 0.00 0.00 0.01 0.00 0.01 0.00 0.00 0.00 0.00 0.00 0.00 0.00 0.00 0.00 0.00 0.00 0.00 0.00 0.00 0.00 0.00 0.00 0.00 0.00 0.00 0.00 0.00 0.00 0.00 0.00 0.00 0.00 0.00 0.00 0.00 0.00 0.00 0.00 0.00 0.00 0.00 0.00 0.00 0.00 0.00 0.00 0.00 0.00 0.00 0.01 0.02 0.02
0.01 0.01 0.01 0.00 0.00 0.00 0.00 0.00 0.00 0.00 0.00 0.00 0.00 0.00 0.00 0.00 0.00 0.00 0.00 0.00 0.00 0.00 0.00 0.00 0.00 0.00 0.00 0.00 0.00 0.00 0.00 0.00 0.00 0.00 0.00 0.00 0.00 0.00 0.00 0.00 0.00 0.00 0.00 0.00 0.00 0.00 0.00 0.00 0.00 0.00 0.00 0.00 0.00 0.00 0.00 0.00 0.00 0.00 0.00 0.00 0.00 0.00 0.00
0.01 0.00 0.00 0.00 0.00 0.00 0.00 0.00 0.00 0.00 0.00 0.00 0.00 0.00 0.00 0.00 0.00 0.00 0.00 0.00 0.00 0.00 0.00 0.00 0.00 0.00 0.00 0.00 0.00 0.00 0.00 0.00 0.00 0.00 0.00 0.00 0.00 0.00 0.00 0.00 0.00 0.00 0.00 0.00 0.00 0.00 0.00 0.00 0.00 0.00 0.00 0.00 0.00 0.00 0.00 0.00 0.00 0.00 0.00 0.00 0.01 0.01 0.01
0.00 0.00 0.00 0.00 0.00 0.00 0.00 0.00 0.00 0.00 0.00 0.01 0.01 0.00 0.00 0.00 0.00 0.00 0.00 0.00 0.00 0.00 0.00 0.00 0.00 0.00 0.00 0.00 0.00 0.00 0.00 0.00 0.00 0.00 0.00 0.00 0.00 0.00 0.00 0.00 0.00 0.00 0.00 0.00 0.00 0.00 0.00 0.00 0.00 0.00 0.00 0.00 0.00 0.00 0.00 0.00 0.00 0.00 0.00 0.00 0.00 0.01 0.01
0.01 0.00 0.00 0.00 0.00 0.00 0.00 0.00 0.00 0.00 0.00 0.01 0.02 0.01 0.00 0.01 0.00 0.00 0.00 0.00 0.00 0.00 0.00 0.00 0.00 0.00 0.00 0.00 0.00 0.00 0.00 0.00 0.00 0.00 0.00 0.00 0.00 0.00 0.00 0.00 0.00 0.00 0.00 0.00 0.00 0.00 0.00 0.00 0.00 0.00 0.00 0.00 0.00 0.00 0.00 0.00 0.00 0.00 0.00 0.00 0.00 0.01 0.01
0.01 0.01 0.00 0.00 0.00 0.00 0.00 0.00 0.00 0.00 0.01 0.02 0.01 0.01 0.01 0.01 0.01 0.00 0.00 0.00 0.00 0.00 0.00 0.00 0.00 0.00 0.00 0.00 0.00 0.00 0.00 0.00 0.00 0.00 0.00 0.00 0.00 0.00 0.00 0.00 0.00 0.00 0.00 0.00 0.00 0.00 0.00 0.00 0.00 0.00 0.00 0.00 0.00 0.00 0.00 0.00 0.00 0.00 0.00 0.00 0.00 0.00 0.00
0.00 0.01 0.00 0.00 0.00 0.00 0.00 0.00 0.00 0.00 0.01 0.01 0.01 0.01 0.00 0.01 0.00 0.00 0.00 0.00 0.00 0.00 0.00 0.00 0.00 0.00 0.00 0.00 0.00 0.00 0.00 0.00 0.00 0.00 0.00 0.00 0.00 0.00 0.00 0.00 0.00 0.00 0.00 0.00 0.00 0.00 0.00 0.00 0.00 0.00 0.00 0.00 0.00 0.00 0.00 0.00 0.00 0.00 0.00 0.00 0.00 0.00 0.00
0.01 0.01 0.01 0.01 0.01 0.00 0.00 0.00 0.00 0.00 0.01 0.01 0.01 0.01 0.00 0.01 0.00 0.00 0.00 0.00 0.00 0.00 0.00 0.00 0.00 0.00 0.00 0.00 0.00 0.00 0.00 0.00 0.00 0.00 0.00 0.00 0.00 0.00 0.00 0.00 0.00 0.00 0.00 0.00 0.00 0.00 0.00 0.00 0.00 0.00 0.00 0.00 0.00 0.00 0.00 0.00 0.00 0.00 0.00 0.00 0.00 0.00 0.00
0.00 0.00 0.00 0.01 0.01 0.01 0.01 0.00 0.00 0.00 0.01 0.01 0.00 0.00 0.00 0.00 0.00 0.00 0.00 0.00 0.00 0.00 0.00 0.00 0.00 0.00 0.00 0.00 0.00 0.00 0.00 0.00 0.00 0.00 0.00 0.00 0.00 0.00 0.00 0.00 0.00 0.00 0.00 0.00 0.00 0.00 0.00 0.00 0.00 0.00 0.00 0.00 0.00 0.00 0.00 0.00 0.00 0.00 0.00 0.00 0.00 0.00 0.00
0.00 0.00 0.00 0.00 0.00 0.00 0.00 0.00 0.00 0.00 0.00 0.00 0.00 0.00 0.00 0.00 0.00 0.00 0.00 0.00 0.00 0.00 0.00 0.00 0.00 0.00 0.00 0.00 0.00 0.00 0.00 0.00 0.00 0.00 0.00 0.00 0.00 0.00 0.00 0.00 0.00 0.00 0.00 0.00 0.00 0.00 0.00 0.00 0.00 0.00 0.00 0.00 0.00 0.00 0.00 0.00 0.00 0.00 0.00 0.00 0.00 0.00 0.00
0.00 0.00 0.00 0.00 0.00 0.00 0.00 0.00 0.00 0.00 0.00 0.00 0.00 0.00 0.00 0.00 0.00 0.00 0.00 0.00 0.00 0.00 0.00 0.00 0.00 0.00 0.00 0.00 0.00 0.00 0.00 0.00 0.00 0.00 0.00 0.00 0.00 0.00 0.00 0.00 0.00 0.00 0.00 0.00 0.00 0.00 0.00 0.00 0.00 0.00 0.00 0.00 0.00 0.00 0.00 0.00 0.00 0.00 0.00 0.00 0.00 0.00 0.00
0.00 0.00 0.00 0.00 0.00 0.00 0.00 0.00 0.00 0.00 0.00 0.00 0.00 0.00 0.00 0.00 0.00 0.00 0.00 0.00 0.00 0.00 0.00 0.00 0.00 0.00 0.00 0.00 0.00 0.00 0.00 0.00 0.00 0.00 0.00 0.00 0.00 0.00 0.00 0.00 0.00 0.00 0.00 0.00 0.00 0.00 0.00 0.00 0.00 0.00 0.00 0.00 0.00 0.00 0.00 0.00 0.00 0.00 0.00 0.00 0.00 0.00 0.00
MSLP
1023.07 1022.79 1022.55 1022.27 1021.99 1021.63 1021.31 1021.03 1020.79 1020.51 1020.23 1019.95 1019.71 1019.47 1019.19 1018.91 1018.63 1018.35 1017.99 1017.79 1017.71 1017.67 1017.67 1017.67 1017.71 1017.71 1017.67 1017.67 1017.67 1017.71 1017.79 1017.83 1017.83 1017.91 1017.99 1018.11 1018.23 1018.31 1018.39 1018.51 1018.63 1018.59 1018.19 1018.15 1017.99 1017.87 1017.95 1017.83 1017.91 1018.19 1018.31 1018.39 1018.51 1018.63 1018.75 1018.83 1018.95 1019.15 1019.35 1019.51 1019.67 1019.83 1019.91
1023.27 1022.99 1022.71 1022.47 1022.19 1021.87 1021.59 1021.35 1021.15 1020.87 1020.63 1020.43 1020.11 1019.83 1019.55 1019.35 1019.15 1018.99 1018.79 1018.47 1018.23 1017.95 1017.83 1017.79 1017.79 1017.79 1017.79 1017.67 1017.63 1017.63 1017.75 1017.83 1017.87 1017.91 1017.99 1018.07 1018.19 1018.27 1018.39 1018.47 1018.59 1018.51 1018.51 1018.31 1018.27 1018.07 1018.03 1018.03 1017.95 1017.95 1018.03 1018.23 1018.35 1018.51 1018.63 1018.67 1018.75 1018.91 1019.03 1019.15 1019.31 1019.47 1019.55
1023.59 1023.23 1022.95 1022.71 1022.39 1022.07 1021.83 1021.59 1021.35 1021.11 1020.91 1020.75 1020.51 1020.23 1019.95 1019.71 1019.55 1019.39 1019.19 1019.03 1018.87 1018.71 1018.51 1018.39 1018.27 1018.19 1018.07 1017.95 1017.83 1017.79 1017.83 1017.83 1017.91 1017.99 1018.07 1018.15 1018.23 1018.35 1018.39 1018.47 1018.55 1018.63 1018.55 1018.51 1018.51 1018.31 1018.19 1018.11 1017.99 1017.91 1017.83 1018.07 1018.19 1018.19 1018.27 1018.35 1018.47 1018.59 1018.71 1018.75 1018.87 1019.07 1019.15
1023.75 1023.43 1023.23 1022.99 1022.71 1022.39 1022.11 1021.87 1021.63 1021.39 1021.15 1020.91 1020.63 1020.43 1020.23 1019.99 1019.83 1019.59 1019.39 1019.23 1019.07 1018.91 1018.79 1018.67 1018.59 1018.51 1018.43 1018.43 1018.47 1018.35 1018.19 1018.07 1018.03 1018.11 1018.19 1018.23 1018.31 1018.43 1018.55 1018.59 1018.67 1018.59 1018.59 1018.55 1018.59 1018.31 1018.31 1018.19 1018.11 1017.87 1017.87 1017.95 1018.03 1018.07 1018.15 1018.19 1018.23 1018.31 1018.31 1018.43 1018.59 1018.67 1018.79
1023.95 1023.71 1023.47 1023.23 1022.99 1022.71 1022.47 1022.27 1022.03 1021.79 1021.47 1021.15 1020.83 1020.63 1020.43 1020.27 1020.07 1019.87 1019.67 1019.47 1019.27 1019.07 1018.95 1018.83 1018.79 1018.63 1018.59 1018.55 1018.59 1018.55 1018.59 1018.55 1018.51 1018.47 1018.51 1018.55 1018.59 1018.67 1018.71 1018.83 1018.95 1018.95 1018.95 1018.95 1018.79 1018.55 1018.43 1018.35 1018.19 1018.07 1017.95 1017.95 1017.91 1017.91 1018.03 1018.11 1018.03 1018.03 1018.07 1018.19 1018.27 1018.35 1018.43
1024.19 1023.99 1023.67 1023.43 1023.23 1023.03 1022.83 1022.63 1022.47 1022.23 1021.79 1021.43 1021.27 1021.11 1020.91 1020.63 1020.27 1019.95 1019.63 1019.43 1019.31 1019.15 1019.07 1019.03 1018.95 1018.91 1018.91 1018.87 1018.87 1018.83 1018.75 1018.67 1018.63 1018.59 1018.63 1018.67 1018.75 1018.79 1018.91 1018.99 1019.07 1019.15 1019.15 1019.15 1018.99 1018.87 1018.83 1018.63 1018.59 1018.39 1018.19 1018.03 1018.03 1018.11 1017.99 1017.95 1018.03 1018.03 1017.99 1018.03 1018.15 1018.19 1018.23
1024.35 1024.23 1023.95 1023.75 1023.51 1023.31 1023.11 1023.03 1022.87 1022.55 1022.19 1022.03 1021.83 1021.55 1021.11 1020.63 1020.23 1019.87 1019.59 1019.39 1019.35 1019.43 1019.51 1019.51 1019.59 1019.67 1019.63 1019.63 1019.59 1019.59 1019.55 1019.51 1019.39 1019.19 1019.03 1018.83 1018.75 1018.75 1018.87 1018.91 1018.95 1018.99 1019.07 1019.07 1018.99 1018.79 1018.75 1018.79 1018.63 1018.55 1018.35 1018.11 1018.15 1018.11 1017.99 1017.91 1017.83 1017.95 1018.07 1017.99 1017.91 1017.87 1017.91
1024.51 1024.39 1024.27 1024.15 1023.87 1023.59 1023.43 1023.35 1023.15 1022.79 1022.67 1022.43 1022.03 1021.51 1021.07 1020.71 1020.31 1020.15 1019.99 1019.83 1019.87 1019.87 1019.87 1019.95 1020.03 1019.99 1019.99 1019.99 1019.95 1019.99 1019.99 1019.99 1019.99 1019.87 1019.87 1019.63 1019.43 1019.23 1018.91 1018.79 1018.75 1018.79 1018.83 1018.79 1018.75 1018.71 1018.59 1018.59 1018.63 1018.47 1018.27 1018.23 1018.31 1018.35 1018.03 1017.79 1017.83 1017.83 1017.75 1017.75 1017.75 1017.59 1017.67
1024.59 1024.51 1024.47 1024.31 1024.11 1023.91 1023.83 1023.71 1023.43 1023.11 1022.95 1022.51 1021.87 1021.43 1021.15 1020.83 1020.55 1020.39 1020.31 1020.27 1020.31 1020.27 1020.23 1020.31 1020.35 1020.35 1020.31 1020.23 1020.23 1020.23 1020.23 1020.31 1020.35 1020.39 1020.31 1020.11 1019.95 1019.87 1019.67 1019.31 1018.79 1018.51 1018.47 1018.51 1018.55 1018.43 1018.35 1018.43 1018.47 1018.27 1018.31 1018.31 1018.31 1018.27 1017.95 1017.79 1017.87 1017.75 1017.47 1017.35 1017.51 1017.47 1017.35
1024.71 1024.67 1024.59 1024.43 1024.27 1024.19 1024.15 1023.95 1023.59 1023.31 1022.75 1022.11 1021.71 1021.39 1021.15 1020.91 1020.75 1020.67 1020.59 1020.71 1020.71 1020.59 1020.55 1020.63 1020.63 1020.63 1020.59 1020.55 1020.51 1020.47 1020.51 1020.59 1020.71 1020.75 1020.75 1020.59 1020.35 1020.19 1019.95 1019.79 1019.59 1019.23 1018.75 1018.39 1018.27 1018.15 1018.15 1018.19 1018.07 1017.83 1017.87 1017.95 1017.83 1017.83 1017.87 1017.83 1017.79 1017.71 1017.39 1017.35 1017.27 1017.11 1016.87
1024.83 1024.71 1024.59 1024.51 1024.43 1024.47 1024.35 1024.07 1023.75 1023.23 1022.47 1021.95 1021.47 1021.19 1021.03 1021.07 1021.15 1020.99 1020.91 1021.03 1021.07 1021.11 1021.07 1020.99 1020.95 1020.95 1020.87 1020.79 1020.71 1020.71 1020.87 1020.99 1021.03 1020.95 1020.79 1020.67 1020.55 1020.35 1020.19 1020.03 1019.79 1019.59 1019.35 1019.15 1018.59 1018.07 1017.83 1017.75 1017.59 1017.39 1017.43 1017.55 1017.55 1017.47 1017.55 1017.47 1017.43 1017.35 1017.35 1017.19 1017.27 1016.95 1016.43
1024.87 1024.71 1024.59 1024.51 1024.59 1024.59 1024.47 1024.19 1023.79 1023.07 1022.43 1021.91 1021.51 1021.15 1021.27 1021.39 1021.43 1021.27 1021.27 1021.39 1021.43 1021.47 1021.43 1021.31 1021.27 1021.27 1021.27 1021.23 1021.39 1021.55 1021.67 1021.63 1021.47 1021.23 1020.99 1020.71 1020.51 1020.31 1020.15 1019.95 1019.79 1019.63 1019.39 1019.23 1019.03 1018.71 1018.27 1017.79 1017.43 1017.11 1016.99 1017.03 1017.11 1017.11 1017.15 1017.11 1017.03 1016.95 1016.91 1016.83 1016.79 1016.63 1016.35
1024.79 1024.67 1024.51 1024.47 1024.55 1024.59 1024.47 1024.31 1023.87 1023.15 1022.47 1022.07 1021.75 1021.39 1021.43 1021.71 1021.63 1021.51 1021.59 1021.59 1021.59 1021.55 1021.47 1021.39 1021.47 1021.63 1021.75 1021.91 1021.91 1021.95 1021.91 1021.75 1021.47 1021.11 1020.87 1020.67 1020.51 1020.39 1020.23 1020.07 1019.83 1019.75 1019.67 1019.39 1019.19 1018.95 1018.63 1018.47 1018.15 1017.75 1017.31 1016.91 1016.79 1016.71 1016.67 1016.71 1016.59 1016.59 1016.47 1016.35 1016.27 1016.03 1015.95
1024.71 1024.51 1024.39 1024.43 1024.51 1024.59 1024.51 1024.35 1023.91 1023.11 1022.59 1022.27 1021.91 1021.59 1021.67 1021.99 1021.91 1021.75 1021.71 1021.71 1021.63 1021.55 1021.47 1021.55 1021.79 1021.99 1022.11 1022.19 1022.27 1022.15 1021.95 1021.59 1021.27 1020.95 1020.71 1020.47 1020.43 1020.39 1020.31 1020.19 1020.07 1019.91 1019.75 1019.51 1019.31 1018.99 1018.71 1018.43 1018.39 1018.31 1017.79 1017.47 1017.35 1017.15 1016.79 1016.43 1016.23 1016.19 1016.07 1016.03 1015.75 1015.63 1015.55
1024.71 1024.47 1024.31 1024.35 1024.43 1024.59 1024.55 1024.39 1023.71 1023.19 1022.75 1022.35 1021.99 1021.75 1021.99 1022.15 1022.11 1021.95 1021.79 1021.75 1021.71 1021.59 1021.51 1021.71 1021.91 1022.07 1022.31 1022.43 1022.51 1022.27 1021.79 1021.39 1021.03 1020.87 1020.79 1020.87 1020.95 1020.87 1020.63 1020.39 1020.19 1020.03 1019.95 1019.91 1019.75 1019.59 1019.35 1019.07 1018.83 1018.55 1018.15 1017.71 1017.39 1017.11 1016.83 1016.55 1016.27 1015.99 1015.67 1015.43 1015.27 1015.19 1015.23
1024.63 1024.43 1024.31 1024.27 1024.43 1024.55 1024.59 1024.35 1023.83 1023.39 1022.91 1022.51 1022.11 1021.95 1022.35 1022.31 1022.23 1022.03 1021.95 1021.87 1021.75 1021.59 1021.59 1021.75 1021.99 1022.23 1022.47 1022.59 1022.67 1022.35 1021.87 1021.43 1021.23 1021.31 1021.23 1021.23 1021.27 1021.23 1020.99 1020.83 1020.39 1020.11 1020.15 1020.15 1019.99 1019.79 1019.51 1019.19 1018.87 1018.51 1018.27 1017.91 1017.59 1017.19 1016.75 1016.39 1016.03 1015.79 1015.63 1015.51 1015.31 1014.99 1014.87
1024.71 1024.43 1024.27 1024.23 1024.43 1024.59 1024.55 1024.47 1024.15 1023.63 1023.11 1022.67 1022.27 1022.23 1022.47 1022.47 1022.35 1022.23 1022.11 1021.99 1021.75 1021.63 1021.71 1021.83 1022.11 1022.43 1022.67 1022.79 1022.83 1022.47 1021.99 1021.55 1021.31 1021.47 1021.35 1021.39 1021.47 1021.47 1021.35 1021.23 1020.87 1020.59 1020.43 1020.15 1019.83 1019.51 1019.19 1018.91 1018.63 1018.43 1018.15 1017.87 1017.55 1017.35 1017.07 1016.83 1016.63 1016.27 1015.67 1015.31 1015.03 1014.59 1014.47
1024.71 1024.35 1024.15 1024.19 1024.43 1024.51 1024.59 1024.59 1024.39 1023.91 1023.39 1022.87 1022.47 1022.31 1022.55 1022.55 1022.47 1022.35 1022.19 1022.07 1021.87 1021.75 1022.03 1022.23 1022.27 1022.55 1022.91 1023.07 1023.03 1022.55 1022.11 1021.67 1021.47 1021.51 1021.39 1021.39 1021.59 1021.67 1021.55 1021.47 1021.03 1020.95 1020.91 1020.67 1020.31 1019.95 1019.59 1019.15 1018.79 1018.39 1018.07 1017.79 1017.51 1017.23 1017.11 1017.11 1017.03 1016.47 1016.19 1015.99 1015.39 1014.67 1014.03
1024.43 1024.27 1024.19 1024.19 1024.39 1024.31 1024.55 1024.67 1024.55 1024.19 1023.59 1023.15 1022.71 1022.47 1022.55 1022.55 1022.51 1022.43 1022.35 1022.39 1022.47 1022.67 1022.87 1023.07 1023.11 1023.19 1023.27 1023.27 1023.07 1022.59 1022.15 1021.75 1021.63 1021.67 1021.71 1022.03 1022.07 1021.99 1021.91 1021.51 1021.19 1021.35 1021.07 1020.83 1020.59 1020.23 1019.95 1019.39 1018.99 1018.63 1018.27 1017.91 1017.55 1017.23 1016.99 1016.79 1016.59 1016.27 1016.11 1015.79 1015.39 1014.95 1014.59
1024.63 1024.59 1024.43 1024.23 1024.19 1024.23 1024.43 1024.59 1024.55 1024.35 1023.75 1023.35 1022.95 1022.47 1022.39 1022.71 1023.03 1023.31 1023.47 1023.43 1023.39 1023.51 1023.63 1023.75 1023.91 1023.91 1023.87 1023.59 1023.27 1022.79 1022.27 1022.03 1021.87 1021.91 1022.55 1022.55 1022.47 1022.15 1021.91 1021.39 1021.83 1021.67 1021.35 1021.07 1020.91 1020.43 1019.99 1019.59 1019.15 1018.83 1018.39 1018.03 1017.67 1017.31 1017.07 1016.71 1016.27 1015.91 1015.59 1015.27 1014.95 1014.59 1014.35
1024.87 1024.75 1024.51 1024.23 1024.07 1024.11 1024.23 1024.35 1024.39 1024.35 1023.99 1023.55 1023.07 1022.55 1022.91 1023.31 1023.71 1023.91 1023.99 1024.11 1024.07 1024.19 1024.31 1024.47 1024.59 1024.63 1024.35 1024.03 1023.51 1022.87 1022.55 1022.39 1022.27 1022.35 1022.91 1022.87 1022.55 1022.19 1021.87 1022.03 1022.19 1021.91 1021.63 1021.43 1021.07 1020.67 1020.23 1019.75 1019.31 1018.95 1018.55 1018.15 1017.79 1017.43 1017.19 1017.31 1017.35 1017.11 1016.67 1016.15 1015.39 1014.51 1013.83
1024.87 1024.71 1024.35 1024.03 1023.83 1023.83 1024.07 1024.19 1024.23 1024.39 1024.27 1023.79 1023.31 1022.75 1023.11 1023.55 1023.75 1024.07 1024.39 1024.47 1024.59 1024.63 1024.79 1024.95 1024.99 1024.91 1024.55 1024.07 1023.43 1023.11 1022.99 1022.83 1022.91 1023.03 1023.27 1022.83 1022.59 1022.51 1022.47 1022.67 1022.63 1022.47 1022.27 1022.03 1021.63 1021.23 1020.83 1020.31 1019.79 1019.39 1019.11 1018.95 1018.83 1018.71 1018.59 1018.31 1017.95 1017.59 1017.15 1016.59 1016.07 1015.55 1014.91
1024.63 1024.55 1024.31 1023.95 1023.75 1023.83 1024.19 1024.35 1024.43 1024.43 1024.43 1024.15 1023.59 1022.95 1023.03 1023.35 1023.95 1024.27 1024.67 1024.87 1025.03 1025.15 1025.27 1025.27 1025.23 1024.99 1024.47 1023.91 1023.63 1023.55 1023.39 1023.47 1023.59 1023.75 1023.43 1023.23 1023.31 1023.27 1023.31 1023.27 1023.19 1022.95 1022.83 1022.51 1022.19 1021.71 1021.35 1021.11 1020.91 1020.67 1020.43 1020.15 1019.71 1019.31 1019.07 1018.67 1018.15 1017.63 1017.07 1016.43 1015.67 1015.03 1014.55
1024.03 1023.87 1023.75 1023.63 1023.71 1023.99 1024.27 1024.35 1024.51 1024.59 1024.51 1024.39 1023.99 1023.39 1023.47 1023.87 1024.15 1024.51 1025.03 1025.23 1025.39 1025.51 1025.51 1025.43 1025.19 1024.79 1024.31 1024.23 1024.11 1023.99 1024.07 1024.19 1024.31 1024.07 1023.95 1024.11 1024.19 1024.07 1023.91 1023.87 1023.75 1023.55 1023.31 1023.11 1022.71 1022.47 1022.27 1022.15 1021.83 1021.55 1021.15 1020.75 1020.35 1019.95 1019.39 1018.83 1018.19 1017.59 1017.03 1016.51 1015.91 1015.27 1014.55
1023.99 1023.91 1023.87 1023.79 1023.91 1024.27 1024.47 1024.47 1024.63 1024.71 1024.67 1024.59 1024.27 1024.07 1023.91 1024.35 1024.79 1025.07 1025.19 1025.47 1025.55 1025.59 1025.59 1025.35 1024.87 1024.79 1024.79 1024.83 1024.67 1024.67 1024.79 1024.91 1024.83 1024.67 1024.71 1024.67 1024.55 1024.51 1024.43 1024.27 1024.19 1023.99 1023.87 1023.67 1023.39 1023.31 1023.11 1022.91 1022.51 1022.23 1021.87 1021.43 1020.95 1020.31 1019.75 1019.07 1018.35 1017.83 1017.43 1017.03 1016.43 1015.75 1015.11
1024.11 1024.11 1024.03 1023.95 1024.27 1024.51 1024.59 1024.59 1024.75 1024.87 1024.91 1024.87 1024.67 1024.67 1024.71 1024.87 1025.19 1025.39 1025.43 1025.59 1025.67 1025.67 1025.67 1025.51 1025.27 1025.27 1025.27 1025.27 1025.11 1025.15 1025.11 1025.11 1025.07 1024.99 1024.99 1024.95 1024.83 1024.83 1024.71 1024.59 1024.51 1024.39 1024.31 1024.19 1023.99 1023.79 1023.51 1023.23 1022.95 1022.67 1022.27 1021.83 1021.23 1020.83 1020.39 1019.83 1019.27 1018.67 1018.11 1017.51 1016.99 1016.03 1014.91
1024.51 1024.43 1024.27 1024.43 1024.63 1024.71 1024.75 1024.83 1024.99 1025.03 1025.15 1025.11 1024.99 1025.11 1025.51 1025.63 1025.75 1025.75 1025.83 1025.95 1025.91 1025.87 1025.87 1025.67 1025.43 1025.47 1025.51 1025.47 1025.39 1025.39 1025.39 1025.43 1025.43 1025.39 1025.31 1025.31 1025.23 1025.11 1024.99 1024.87 1024.79 1024.83 1024.79 1024.63 1024.39 1024.11 1023.83 1023.59 1023.35 1022.99 1022.55 1022.07 1021.75 1021.47 1020.99 1020.59 1020.11 1019.59 1019.07 1018.39 1017.83 1016.99 1015.91
1024.87 1024.71 1024.75 1024.87 1024.91 1024.99 1025.03 1025.07 1025.23 1025.31 1025.31 1025.23 1025.11 1025.23 1025.67 1025.83 1025.99 1026.07 1026.15 1026.07 1025.99 1025.95 1025.87 1025.75 1025.71 1025.83 1025.91 1025.87 1025.79 1025.79 1025.83 1025.83 1025.79 1025.75 1025.67 1025.59 1025.47 1025.39 1025.27 1025.07 1025.07 1025.15 1025.07 1024.95 1024.67 1024.39 1024.03 1023.83 1023.43 1023.23 1022.79 1022.55 1022.31 1021.99 1021.51 1021.07 1020.67 1020.11 1019.47 1018.99 1018.27 1017.43 1016.43
1024.91 1024.87 1025.03 1025.03 1025.11 1025.19 1025.27 1025.39 1025.51 1025.59 1025.35 1024.75 1024.71 1024.99 1025.43 1025.95 1026.19 1026.27 1026.19 1026.07 1025.83 1025.99 1026.03 1025.99 1025.99 1026.11 1026.11 1026.11 1026.07 1026.07 1026.11 1026.15 1026.11 1026.07 1026.07 1025.99 1025.71 1025.63 1025.55 1025.35 1025.27 1025.19 1025.11 1024.95 1024.71 1024.35 1024.11 1023.95 1023.63 1023.43 1023.11 1022.91 1022.63 1022.23 1021.83 1021.43 1020.99 1020.51 1020.03 1019.35 1018.99 1018.23 1017.15
1024.59 1024.99 1025.11 1025.19 1025.39 1025.47 1025.59 1025.79 1025.87 1025.67 1025.03 1024.51 1024.75 1024.91 1024.95 1025.15 1025.35 1025.83 1026.03 1026.03 1025.91 1026.07 1026.15 1026.15 1026.15 1026.27 1026.35 1026.35 1026.35 1026.27 1026.31 1026.31 1026.35 1026.27 1026.27 1026.23 1026.03 1025.95 1025.79 1025.55 1025.59 1025.55 1025.39 1025.11 1024.83 1024.55 1024.39 1024.19 1023.87 1023.71 1023.35 1023.19 1022.83 1022.39 1022.07 1021.71 1021.35 1020.79 1020.35 1019.87 1019.19 1018.39 1017.63
1024.35 1024.55 1025.07 1025.23 1025.47 1025.47 1025.63 1025.83 1025.83 1025.63 1024.99 1024.91 1025.11 1025.27 1025.23 1025.31 1025.63 1025.79 1026.03 1026.03 1026.11 1026.19 1026.27 1026.27 1026.27 1026.43 1026.59 1026.59 1026.59 1026.47 1026.47 1026.51 1026.51 1026.51 1026.51 1026.39 1026.35 1026.27 1026.07 1025.91 1025.87 1025.71 1025.51 1025.23 1024.91 1024.67 1024.59 1024.43 1024.15 1023.87 1023.67 1023.39 1023.03 1022.59 1022.23 1021.99 1021.63 1021.27 1020.75 1020.19 1019.43 1018.87 1018.03
1024.91 1024.87 1024.87 1025.11 1025.31 1025.63 1025.95 1025.99 1025.95 1025.71 1025.23 1025.27 1025.35 1025.63 1025.79 1025.59 1025.75 1025.87 1026.07 1026.15 1026.23 1026.27 1026.39 1026.59 1026.63 1026.63 1026.67 1026.75 1026.75 1026.67 1026.75 1026.71 1026.71 1026.71 1026.71 1026.59 1026.43 1026.35 1026.31 1026.19 1026.07 1025.83 1025.67 1025.35 1025.03 1024.83 1024.71 1024.51 1024.27 1024.03 1023.83 1023.59 1023.23 1022.83 1022.59 1022.23 1021.79 1021.39 1020.87 1020.27 1019.79 1019.27 1018.51
1025.55 1025.59 1025.51 1025.43 1025.47 1025.47 1025.71 1025.91 1025.95 1025.75 1025.63 1025.67 1025.71 1025.83 1026.15 1025.99 1026.07 1026.27 1026.47 1026.55 1026.63 1026.67 1026.71 1026.83 1026.83 1026.87 1026.87 1026.91 1026.87 1026.91 1026.91 1026.87 1026.87 1026.87 1026.79 1026.75 1026.63 1026.55 1026.51 1026.47 1026.35 1026.15 1025.83 1025.43 1025.23 1025.07 1024.99 1024.67 1024.43 1024.19 1023.99 1023.75 1023.51 1023.15 1022.75 1022.35 1021.99 1021.55 1021.15 1020.67 1020.07 1019.47 1019.07
1025.95 1026.11 1026.15 1026.15 1026.19 1026.23 1026.27 1026.31 1026.19 1026.15 1026.19 1026.11 1026.23 1026.23 1026.19 1026.19 1026.11 1026.27 1026.55 1026.79 1026.91 1026.99 1026.95 1026.99 1026.99 1026.99 1027.07 1027.03 1027.07 1027.07 1027.03 1026.99 1026.99 1026.99 1026.91 1026.87 1026.83 1026.79 1026.75 1026.63 1026.51 1026.23 1025.87 1025.63 1025.47 1025.35 1025.15 1024.87 1024.63 1024.43 1024.11 1023.83 1023.55 1023.35 1023.03 1022.63 1022.15 1021.75 1021.19 1020.71 1020.31 1019.87 1019.39
1026.31 1026.39 1026.47 1026.59 1026.67 1026.67 1026.63 1026.67 1026.59 1026.55 1026.47 1026.39 1026.59 1026.63 1026.47 1026.51 1026.71 1026.71 1026.83 1026.91 1027.07 1027.11 1027.11 1027.03 1026.99 1027.03 1027.03 1027.07 1027.03 1027.07 1027.03 1026.99 1027.03 1026.99 1026.95 1026.87 1026.83 1026.79 1026.75 1026.63 1026.47 1026.23 1025.95 1025.71 1025.55 1025.39 1025.23 1024.95 1024.75 1024.59 1024.35 1023.99 1023.71 1023.35 1022.99 1022.63 1022.27 1021.87 1021.47 1021.03 1020.59 1020.11 1019.51
1026.27 1026.51 1026.63 1026.67 1026.79 1026.75 1026.75 1026.75 1026.79 1026.75 1026.55 1026.39 1026.59 1026.71 1026.91 1026.87 1026.79 1026.83 1026.83 1026.83 1026.95 1027.07 1027.11 1027.19 1027.11 1027.07 1027.07 1027.07 1027.07 1027.07 1027.07 1027.03 1027.03 1026.99 1026.99 1026.99 1026.87 1026.75 1026.67 1026.63 1026.47 1026.23 1025.95 1025.79 1025.67 1025.43 1025.23 1025.07 1024.99 1024.79 1024.51 1024.23 1023.95 1023.59 1023.23 1022.87 1022.47 1022.07 1021.71 1021.31 1020.87 1020.31 1019.71
Thickness
5257 5260 5261 5263 5265 5267 5271 5275 5278 5281 5284 5288 5291 5293 5296 5299 5302 5306 5309 5311 5313 5314 5315 5317 5318 5320 5321 5322 5323 5325 5325 5325 5325 5325 5326 5327 5328 5330 5331 5331 5331 5337 5347 5348 5349 5354 5354 5354 5356 5356 5358 5361 5362 5363 5364 5366 5366 5366 5364 5365 5365 5363 5363
5244 5246 5248 5250 5252 5254 5257 5260 5263 5265 5269 5273 5276 5279 5282 5285 5288 5290 5293 5296 5298 5300 5301 5304 5306 5307 5309 5310 5312 5313 5313 5314 5314 5314 5316 5317 5317 5319 5320 5319 5320 5324 5331 5335 5337 5340 5343 5344 5344 5346 5348 5348 5350 5352 5353 5355 5357 5356 5356 5357 5357 5357 5357
5230 5232 5234 5236 5238 5241 5244 5246 5249 5251 5254 5257 5260 5264 5267 5271 5273 5276 5279 5281 5283 5285 5287 5289 5291 5293 5295 5296 5299 5301 5301 5302 5303 5303 5304 5306 5306 5307 5308 5308 5307 5309 5316 5321 5324 5327 5330 5332 5332 5335 5338 5336 5337 5340 5341 5344 5347 5347 5348 5349 5349 5349 5350
5216 5219 5221 5222 5224 5228 5230 5233 5236 5237 5240 5243 5246 5250 5254 5257 5259 5262 5265 5267 5269 5271 5273 5275 5277 5279 5281 5282 5284 5286 5287 5289 5290 5291 5292 5294 5295 5295 5296 5295 5294 5296 5300 5304 5309 5314 5318 5318 5319 5323 5326 5325 5326 5328 5330 5332 5335 5337 5339 5340 5339 5340 5342
5201 5204 5207 5209 5211 5213 5216 5219 5222 5224 5226 5230 5233 5237 5239 5241 5244 5248 5251 5253 5256 5258 5260 5262 5264 5266 5267 5269 5270 5272 5273 5274 5276 5277 5279 5280 5282 5282 5282 5282 5281 5282 5285 5287 5293 5300 5302 5303 5306 5310 5313 5313 5314 5315 5316 5318 5322 5325 5328 5329 5330 5330 5332
5185 5189 5192 5195 5197 5199 5202 5204 5206 5209 5213 5217 5220 5222 5224 5228 5231 5235 5239 5241 5243 5246 5247 5249 5250 5252 5253 5254 5255 5257 5258 5260 5262 5264 5266 5267 5269 5269 5268 5268 5268 5269 5270 5272 5277 5284 5287 5289 5292 5294 5298 5301 5300 5300 5301 5304 5308 5312 5314 5316 5318 5320 5321
5170 5173 5176 5179 5182 5185 5188 5190 5191 5195 5199 5202 5204 5207 5211 5216 5220 5224 5227 5229 5231 5232 5234 5235 5235 5236 5237 5238 5239 5240 5241 5243 5245 5247 5250 5252 5255 5256 5256 5256 5257 5257 5258 5259 5263 5269 5273 5276 5278 5280 5284 5288 5286 5283 5287 5292 5295 5297 5298 5300 5304 5307 5310
5156 5158 5161 5163 5166 5171 5173 5175 5178 5181 5185 5187 5191 5195 5200 5204 5208 5211 5214 5216 5218 5218 5219 5220 5220 5221 5222 5223 5224 5225 5226 5227 5228 5230 5232 5234 5237 5240 5242 5244 5247 5248 5248 5249 5251 5256 5261 5263 5264 5267 5272 5274 5271 5269 5275 5281 5279 5278 5283 5287 5288 5292 5296
5142 5144 5146 5148 5152 5155 5158 5161 5164 5167 5171 5175 5179 5184 5188 5192 5196 5199 5200 5202 5204 5205 5206 5206 5206 5206 5208 5209 5210 5211 5211 5212 5213 5214 5216 5219 5221 5223 5226 5229 5233 5236 5238 5239 5240 5244 5248 5249 5250 5256 5259 5259 5258 5257 5262 5266 5262 5262 5270 5274 5272 5276 5283
5127 5130 5132 5135 5138 5140 5143 5147 5150 5154 5159 5164 5169 5173 5176 5180 5183 5186 5188 5190 5191 5191 5192 5192 5191 5192 5193 5195 5198 5199 5199 5199 5200 5200 5202 5205 5206 5209 5211 5214 5216 5220 5223 5226 5228 5232 5236 5236 5239 5246 5248 5245 5247 5247 5246 5248 5248 5248 5254 5257 5256 5262 5272
5112 5115 5118 5121 5123 5125 5129 5133 5137 5142 5148 5153 5158 5161 5165 5168 5171 5174 5176 5177 5177 5176 5176 5176 5178 5179 5181 5183 5185 5185 5185 5185 5186 5187 5189 5192 5194 5196 5198 5200 5202 5205 5208 5210 5213 5217 5222 5224 5229 5236 5237 5234 5235 5235 5232 5233 5235 5235 5238 5241 5241 5247 5259
5097 5100 5103 5107 5109 5111 5115 5119 5124 5130 5136 5142 5146 5150 5153 5156 5159 5161 5162 5162 5161 5161 5162 5165 5167 5168 5168 5169 5170 5169 5169 5170 5172 5174 5177 5180 5182 5184 5186 5188 5190 5191 5194 5195 5196 5200 5206 5210 5215 5222 5225 5224 5224 5223 5221 5220 5222 5223 5225 5227 5228 5233 5244
5084 5087 5090 5092 5094 5097 5101 5105 5110 5117 5124 5129 5133 5136 5142 5145 5147 5147 5147 5147 5147 5149 5152 5155 5156 5154 5154 5155 5155 5155 5156 5158 5161 5164 5167 5170 5172 5173 5174 5176 5176 5178 5179 5180 5181 5184 5190 5194 5197 5202 5209 5213 5210 5209 5210 5210 5211 5212 5213 5214 5217 5222 5230
5071 5074 5077 5080 5082 5084 5087 5092 5098 5105 5111 5116 5120 5125 5130 5133 5132 5133 5134 5136 5137 5139 5141 5142 5142 5141 5141 5141 5141 5142 5145 5147 5151 5154 5157 5160 5161 5162 5163 5163 5164 5163 5163 5164 5167 5170 5175 5179 5179 5181 5191 5196 5194 5193 5196 5198 5198 5199 5199 5201 5204 5209 5214
5060 5063 5066 5069 5071 5073 5076 5081 5086 5093 5099 5104 5108 5114 5118 5118 5119 5121 5124 5124 5126 5128 5130 5131 5130 5129 5129 5128 5127 5129 5133 5136 5140 5143 5145 5147 5147 5148 5149 5149 5149 5148 5147 5149 5151 5153 5157 5162 5163 5165 5171 5177 5178 5177 5180 5183 5183 5184 5186 5187 5191 5195 5199
5050 5054 5057 5059 5061 5064 5066 5071 5076 5082 5088 5093 5099 5104 5105 5104 5107 5112 5113 5113 5115 5117 5118 5120 5119 5119 5118 5116 5115 5118 5122 5125 5128 5130 5131 5133 5133 5133 5133 5134 5134 5134 5134 5135 5137 5139 5142 5146 5149 5151 5154 5160 5163 5163 5164 5166 5167 5171 5173 5174 5176 5180 5186
5041 5045 5049 5051 5053 5056 5058 5062 5067 5072 5078 5083 5090 5094 5093 5093 5097 5101 5102 5103 5105 5107 5108 5109 5109 5108 5107 5105 5104 5107 5111 5114 5116 5117 5118 5120 5120 5120 5119 5118 5117 5120 5122 5124 5125 5127 5129 5132 5135 5138 5140 5145 5148 5149 5148 5148 5150 5156 5159 5158 5160 5166 5175
5035 5039 5042 5045 5047 5049 5051 5054 5058 5063 5069 5074 5080 5084 5084 5085 5088 5090 5091 5092 5094 5096 5098 5098 5098 5099 5096 5095 5094 5096 5100 5103 5105 5106 5107 5109 5109 5107 5105 5104 5106 5110 5112 5112 5111 5112 5115 5119 5123 5125 5128 5132 5134 5135 5135 5132 5133 5140 5141 5140 5144 5151 5161
5029 5033 5036 5038 5040 5042 5044 5046 5050 5055 5060 5065 5070 5075 5077 5079 5080 5079 5079 5080 5082 5084 5085 5085 5085 5086 5085 5084 5084 5086 5089 5093 5094 5095 5096 5096 5096 5095 5094 5096 5098 5100 5100 5100 5099 5101 5104 5108 5112 5114 5117 5120 5121 5122 5123 5121 5121 5125 5127 5128 5132 5137 5142
5023 5026 5029 5032 5035 5037 5038 5040 5043 5046 5051 5056 5061 5068 5071 5071 5068 5065 5066 5068 5070 5072 5073 5073 5072 5072 5072 5072 5074 5077 5080 5082 5083 5084 5083 5081 5083 5084 5086 5088 5087 5087 5088 5089 5090 5092 5094 5097 5100 5101 5104 5107 5109 5110 5111 5111 5111 5114 5116 5118 5122 5126 5127
5017 5020 5024 5027 5031 5033 5034 5036 5038 5040 5044 5048 5053 5060 5064 5061 5056 5054 5056 5058 5060 5061 5061 5061 5060 5060 5060 5062 5065 5069 5070 5072 5072 5072 5070 5070 5072 5075 5076 5076 5075 5075 5077 5078 5080 5081 5082 5084 5087 5089 5092 5095 5097 5097 5098 5097 5099 5100 5101 5102 5106 5111 5115
5013 5016 5019 5023 5027 5029 5030 5031 5033 5034 5037 5041 5046 5053 5056 5051 5047 5047 5048 5050 5051 5051 5050 5050 5049 5050 5051 5054 5057 5059 5060 5061 5061 5059 5059 5060 5062 5063 5063 5063 5062 5063 5064 5065 5066 5068 5070 5072 5074 5076 5077 5078 5079 5080 5081 5082 5084 5086 5085 5086 5090 5094 5098
5011 5013 5017 5020 5023 5025 5025 5026 5027 5029 5030 5033 5039 5045 5047 5044 5041 5040 5041 5041 5041 5041 5040 5040 5041 5042 5044 5046 5048 5049 5049 5049 5048 5048 5048 5049 5048 5048 5049 5048 5048 5049 5050 5051 5053 5054 5056 5057 5057 5058 5059 5060 5062 5063 5065 5067 5070 5072 5074 5075 5079 5084 5087
5010 5012 5015 5018 5020 5020 5020 5021 5022 5023 5024 5027 5031 5036 5037 5035 5033 5033 5033 5032 5032 5031 5031 5032 5034 5035 5037 5038 5038 5038 5038 5036 5036 5036 5036 5035 5034 5034 5034 5034 5034 5035 5035 5036 5038 5038 5039 5039 5039 5040 5042 5043 5045 5047 5049 5052 5056 5059 5061 5062 5066 5071 5077
5007 5009 5011 5014 5015 5015 5015 5017 5018 5018 5019 5021 5023 5027 5028 5027 5025 5025 5025 5024 5024 5024 5024 5026 5027 5028 5028 5028 5028 5027 5026 5025 5025 5025 5024 5023 5023 5022 5021 5020 5020 5020 5020 5020 5021 5021 5020 5020 5021 5022 5023 5025 5027 5030 5033 5036 5040 5044 5046 5047 5050 5057 5063
5003 5005 5007 5010 5010 5009 5011 5012 5013 5013 5013 5014 5016 5018 5018 5018 5018 5018 5017 5017 5017 5017 5017 5019 5019 5019 5019 5018 5018 5017 5016 5015 5014 5013 5012 5011 5011 5009 5008 5007 5007 5006 5005 5005 5004 5003 5003 5003 5003 5003 5005 5006 5010 5012 5013 5015 5019 5024 5027 5029 5031 5037 5046
4998 5000 5003 5004 5004 5004 5006 5007 5008 5008 5008 5009 5010 5010 5010 5010 5010 5010 5010 5010 5010 5010 5010 5010 5011 5010 5009 5009 5008 5006 5005 5004 5002 5000 4999 4998 4997 4995 4994 4993 4991 4990 4989 4988 4988 4987 4986 4986 4985 4986 4988 4989 4990 4991 4992 4993 4997 5002 5006 5008 5010 5016 5026
4994 4996 4998 4999 4999 5000 5002 5002 5002 5003 5004 5005 5005 5005 5004 5003 5004 5003 5002 5003 5003 5003 5002 5002 5002 5000 4999 4998 4997 4996 4993 4991 4990 4987 4986 4984 4983 4981 4980 4978 4976 4974 4973 4972 4971 4971 4971 4970 4969 4970 4970 4971 4971 4972 4973 4974 4976 4980 4985 4987 4990 4995 5005
4992 4993 4994 4995 4995 4996 4998 4998 4997 4998 5000 5003 5003 5001 5000 4999 4998 4997 4996 4996 4997 4996 4994 4994 4993 4991 4990 4988 4987 4985 4983 4981 4978 4976 4974 4972 4970 4968 4967 4965 4964 4961 4960 4958 4957 4957 4957 4956 4955 4954 4953 4953 4954 4954 4955 4956 4957 4960 4964 4968 4971 4976 4984
4992 4992 4991 4991 4992 4992 4993 4993 4992 4993 4997 5000 4999 4997 4997 4995 4993 4992 4990 4989 4989 4988 4986 4986 4984 4983 4980 4978 4977 4975 4974 4971 4969 4967 4964 4962 4960 4958 4956 4955 4952 4950 4948 4946 4945 4943 4942 4941 4940 4940 4938 4937 4938 4939 4938 4938 4939 4941 4945 4949 4954 4960 4966
4990 4990 4990 4989 4989 4989 4989 4988 4988 4990 4993 4994 4992 4990 4990 4989 4987 4985 4984 4982 4981 4980 4978 4977 4976 4974 4971 4969 4968 4966 4964 4962 4960 4958 4956 4954 4951 4949 4947 4945 4942 4939 4937 4935 4934 4931 4929 4927 4925 4924 4923 4921 4921 4922 4922 4920 4921 4922 4925 4930 4935 4941 4948
4986 4987 4988 4987 4987 4986 4985 4984 4983 4984 4986 4987 4985 4983 4981 4980 4979 4977 4975 4974 4972 4972 4970 4968 4967 4965 4963 4961 4960 4959 4957 4955 4953 4950 4948 4946 4944 4941 4938 4935 4932 4930 4927 4926 4924 4921 4918 4915 4912 4911 4908 4906 4905 4905 4905 4905 4904 4905 4908 4911 4916 4921 4927
4982 4982 4982 4982 4982 4982 4980 4979 4978 4978 4979 4978 4977 4975 4973 4972 4971 4969 4967 4965 4965 4964 4963 4960 4959 4958 4957 4955 4954 4952 4949 4948 4945 4943 4940 4938 4936 4933 4930 4926 4922 4920 4918 4917 4914 4911 4907 4905 4902 4899 4896 4894 4891 4889 4890 4890 4889 4890 4891 4894 4898 4902 4907
4978 4977 4976 4976 4975 4974 4973 4973 4972 4971 4970 4969 4968 4967 4966 4965 4964 4962 4960 4958 4957 4957 4956 4955 4954 4953 4951 4949 4948 4945 4944 4942 4939 4936 4934 4931 4928 4925 4922 4917 4914 4912 4910 4909 4905 4902 4898 4895 4892 4889 4885 4883 4880 4877 4876 4875 4875 4875 4877 4879 4882 4885 4889
4974 4973 4971 4970 4969 4967 4966 4965 4964 4963 4962 4962 4960 4959 4958 4958 4957 4956 4955 4954 4952 4952 4951 4950 4949 4948 4946 4945 4943 4941 4938 4936 4934 4931 4928 4925 4922 4919 4916 4912 4909 4906 4904 4902 4898 4894 4891 4887 4883 4879 4875 4872 4869 4867 4865 4864 4862 4862 4863 4864 4866 4870 4874
4972 4970 4967 4965 4964 4962 4961 4959 4957 4957 4956 4955 4954 4952 4951 4951 4952 4953 4952 4951 4949 4948 4947 4945 4945 4944 4942 4940 4939 4936 4934 4932 4929 4927 4924 4921 4918 4915 4911 4907 4905 4902 4899 4896 4892 4889 4885 4881 4876 4872 4866 4863 4860 4857 4855 4853 4851 4850 4850 4851 4853 4857 4860